Location: Çayiçi
(36.4667°N, 30.2333°E)
Time: 02:39:36
(UTC+00:00)

CZ-4B DEB - Pass Details

Date: 09 February 2023
Orbit: 839 x 859 km, 99.1° (Epoch: 01 April)

Event Time Altitude Azimuth Distance (km) Brightness Sun altitude
Rises 16:29:13 0° 164° (SSE) 3,376 7.3 -11.8°
Reaches altitude 10° 16:31:33 10° 165° (SSE) 2,447 6.6 -12.2°
Maximum altitude 16:36:59 89° 69° (ENE) 847 4.2 -13.3°
Drops below altitude 10° 16:42:29 10° 347° (NNW) 2,471 6.7 -14.4°
Sets 16:44:51 0° 347° (NNW) 3,413 7.4 -14.9°
